SCP
0 0 0 0 0 0 0 0 0 0 0 0 0 0 0 0 0 0 0 0 0 0 0 0 0 0 0 0 0 0 0 0 0 0 0 0 -0 -0 -0 0 0 0 0
0 0 0 0 0 0 0 0 0 0 0 0 0 0 0 0 0 0 0 0 0 0 0 0 0 0 0 0 0 0 0 0 0 0 0 0 -0 -0 -0 -0 0 0 0
0 0 0 0 0 0 0 0 0 0 0 0 0 0 0 0 0 0 0 0 0 0 0 0 0 0 0 0 0 0 0 0 0 0 0 0 0 -0 -0 -0 0 0 0
0 0 0 0 0 0 0 0 0 0 0 0 0 0 0 0 0 0 0 0 0 0 0 0 0 0 0 0 0 0 0 0 0 0 0 0 0 0 0 0 0 0 0
0 0 0 0 0 0 0 0 0 0 0 0 0 0 0 0 0 0 0 0 0 0 0 0 0 0 0 0 0 0 0 0 0 0 0 0 0 0 0 0 0 0 0
0 0 0 0 0 0 0 0 0 0 0 0 0 0 0 0 0 0 0 0 0 0 0 0 0 0 0 0 0 0 0 0 0 0 0 0 0 0 0 0 0 0 0
0 0 0 0 0 0 0 0 0 0 0 0 0 0 0 0 0 0 0 0 0 0 0 0 0 0 0 0 0 0 0 0 0 0 0 0 0 0 0 0 0 0 0
0 0 0 0 0 0 0 0 0 0 0 0 0 0 0 0 0 0 0 0 0 0 0 0 0 0 0 0 0 0 0 0 0 0 0 0 0 0 0 0 0 0 0
0 0 0 0 0 0 0 0 0 0 0 0 0 0 0 0 0 0 0 0 0 0 0 0 0 0 0 0 0 0 0 0 0 0 0 0 0 0 0 0 0 0 0
0 0 0 0 0 0 0 0 0 0 0 0 0 0 0 0 0 0 0 0 0 0 0 0 0 0 0 0 0 0 0 0 0 0 0 0 0 0 0 0 0 0 0
0 0 0 0 0 0 0 0 0 0 0 0 0 0 0 0 0 0 0 0 0 0 0 0 0 0 0 0 0 0 0 0 0 0 0 0 0 0 0 0 0 0 0
0 0 0 0 0 0 0 0 0 0 0 0 0 0 0 0 0 0 0 0 0 0 0 0 0 0 0 0 0 0 0 0 0 0 0 0 0 0 0 0 0 0 0
0 0 0 0 0 0 0 0 0 0 0 0 0 0 0 0 0 0 0 0 0 0 0 0 0 0 0 0 0 0 0 0 0 0 0 0 0 0 0 0 0 0 0
0 0 0 0 0 0 0 0 0 0 0 0 0 0 0 0 0 0 0 0 0 0 0 0 0 0 0 0 0 0 0 0 0 0 0 0 0 0 0 0 0 0 0
0 0 0 0 0 0 0 0 0 0 0 0 0 0 0 0 0 0 0 0 0 0 0 0 0 0 0 0 0 0 0 0 0 0 0 0 0 0 0 0 0 0 0
0 0 0 0 0 0 0 0 0 0 0 0 0 0 0 0 0 0 0 0 0 0 0 0 0 0 0 0 0 0 0 0 0 0 0 0 0 0 0 0 0 0 0
0 0 0 0 0 0 0 0 0 1 1 1 1 0 0 0 0 0 0 0 0 0 0 0 0 0 0 0 0 0 0 0 0 0 0 0 0 0 0 0 0 0 0
0 0 0 0 0 0 0 0 1 1 1 1 1 1 1 0 0 0 0 0 0 0 0 0 0 0 0 0 0 0 0 0 0 0 0 0 0 0 0 0 0 0 0
0 0 0 0 0 0 0 0 0 1 1 1 1 1 0 0 0 0 0 0 0 0 0 0 0 0 0 0 0 0 0 0 0 0 0 0 0 0 0 0 0 0 0
0 0 0 0 0 0 0 0 0 0 0 0 0 0 0 0 0 0 0 0 0 0 0 0 0 0 0 0 0 0 0 0 0 0 0 0 0 0 0 0 0 0 0
0 0 0 0 0 0 0 0 0 0 0 0 0 0 0 0 0 0 0 0 0 0 0 0 0 0 0 0 0 0 0 0 0 0 0 0 0 0 0 0 0 0 0
0 0 0 0 0 0 0 0 0 0 0 0 0 0 0 0 0 0 0 0 0 0 0 0 0 0 0 0 0 0 0 0 0 0 0 0 0 0 0 0 0 0 0
0 0 0 0 0 0 0 0 0 0 0 0 0 0 0 0 0 0 0 0 0 0 0 0 0 0 0 0 0 0 0 0 0 0 0 0 0 0 0 0 0 0 0
0 0 0 0 0 0 0 0 0 0 0 0 0 0 0 0 0 0 0 0 0 0 0 0 0 0 0 0 0 0 0 0 0 0 0 0 0 0 0 0 0 0 0
0 0 0 0 0 0 0 0 0 0 0 0 0 0 0 0 0 0 0 0 0 0 0 0 0 0 0 0 0 0 0 0 0 0 0 0 0 0 0 0 0 0 0
0 0 0 0 0 0 0 0 0 0 0 0 0 0 0 0 0 0 0 0 0 0 0 0 0 0 0 0 0 0 0 0 0 0 0 0 0 0 0 0 0 0 0
Wind_Speed
5 5 6 6 6 6 6 6 6 5 5 3 2 2 1 1 0 1 1 1 1 2 2 1 1 1 1 1 2 2 1 1 1 1 1 2 1 1 1 0 0 1 1
5 6 6 6 7 7 6 6 6 6 5 3 2 2 2 1 1 0 0 1 1 2 2 2 1 1 1 1 1 2 1 1 1 1 1 1 2 2 2 1 1 0 0
9 8 7 7 7 7 7 7 6 6 5 5 3 3 2 2 1 0 0 0 1 2 2 2 2 2 2 2 2 2 2 1 1 1 2 1 1 1 1 1 1 1 0
8 8 8 8 8 7 6 5 6 5 5 5 4 5 3 2 2 1 1 0 1 1 2 2 2 2 2 2 2 2 2 2 1 0 1 1 2 1 1 1 1 0 0
9 9 9 8 7 6 6 5 5 4 4 4 5 4 3 2 1 1 1 0 0 1 1 2 2 2 2 2 1 2 2 2 2 1 1 1 0 1 1 1 1 1 1
7 7 6 6 5 5 5 5 5 4 4 4 4 4 4 4 3 2 1 0 0 0 1 2 2 2 2 2 2 2 2 2 2 1 1 1 1 2 2 2 1 1 1
7 7 7 7 6 6 6 6 6 4 4 4 4 4 4 4 4 3 2 1 1 1 1 2 2 2 2 2 2 2 2 2 2 2 1 1 1 1 2 2 1 1 1
7 8 8 8 7 8 7 7 7 6 5 5 4 4 4 3 3 3 3 2 2 2 2 2 2 2 2 2 2 2 1 1 2 2 2 1 1 1 2 2 2 1 1
8 8 8 8 8 8 8 8 7 6 6 6 5 4 4 4 3 3 2 2 2 2 2 2 2 2 2 2 2 1 1 1 1 1 1 1 1 1 1 1 2 3 2
6 7 7 7 7 7 6 6 6 6 6 5 4 3 4 4 4 3 3 2 2 2 2 2 2 2 2 2 2 1 1 1 1 1 1 0 1 0 1 1 1 1 2
6 7 7 7 7 6 6 6 6 5 4 4 3 3 3 4 3 3 3 3 2 2 2 2 2 2 2 2 2 2 1 2 1 0 1 1 0 0 0 0 1 1 1
5 6 7 7 6 6 6 6 6 5 5 4 4 4 3 3 3 3 3 3 3 2 2 2 2 2 2 2 2 2 2 2 2 1 1 1 0 1 0 0 1 1 1
4 4 5 6 6 7 6 6 6 5 5 5 4 3 3 3 3 3 3 2 2 2 2 3 3 3 2 2 2 2 2 2 3 2 2 2 1 1 1 1 1 1 1
5 5 4 4 5 5 5 6 5 5 5 5 5 4 3 4 4 3 3 3 3 3 3 3 3 3 3 3 2 2 2 2 2 3 3 3 3 3 3 2 2 2 1
4 5 5 4 3 3 4 5 5 5 5 5 5 4 4 3 3 3 3 3 3 3 3 3 3 3 3 3 3 3 3 2 2 2 3 3 4 4 4 3 3 3 2
6 6 6 5 4 4 4 4 4 4 5 5 5 4 3 2 2 2 2 2 2 3 3 3 3 3 3 3 4 3 3 3 3 3 3 3 4 4 5 5 4 5 4
6 6 6 5 5 5 5 5 5 4 5 4 4 4 3 3 3 2 2 3 3 2 2 3 3 3 3 4 3 3 3 2 2 2 2 2 2 2 2 3 4 4 6
5 5 4 4 3 3 3 4 4 4 4 4 3 4 4 3 2 2 2 2 2 2 3 3 3 3 3 4 4 3 2 2 2 3 3 3 3 2 2 2 3 3 4
4 4 4 4 4 4 4 4 4 3 3 3 3 4 4 3 3 3 3 2 1 2 2 2 2 3 3 3 4 3 2 2 3 3 3 3 3 3 3 2 2 3 4
3 4 4 4 4 3 4 5 4 3 3 3 3 3 4 4 4 3 2 1 1 2 1 1 2 2 3 3 4 3 2 2 2 2 2 3 4 3 3 3 3 4 4
3 4 4 4 3 4 5 5 3 4 4 3 3 3 3 4 4 3 2 2 1 1 1 1 1 2 3 3 4 4 2 3 2 2 2 2 3 4 3 3 3 4 3
3 3 3 3 2 3 5 4 4 3 2 3 3 3 3 3 3 3 2 2 2 1 1 1 1 1 1 1 2 2 3 3 2 3 2 2 3 3 3 2 2 2 1
3 3 3 3 2 2 4 4 3 2 3 3 2 2 2 2 2 3 3 2 2 2 1 1 1 2 1 1 2 2 2 2 2 2 3 3 2 1 1 1 1 1 1
2 2 3 2 1 1 2 3 3 3 4 3 2 2 2 2 1 2 2 2 2 2 2 2 2 1 1 1 1 1 1 1 1 1 1 1 0 0 0 1 1 1 1
1 2 2 1 1 1 1 1 2 4 4 3 2 2 2 2 1 1 1 2 3 4 4 3 2 2 2 2 2 1 1 1 1 1 0 0 0 1 1 1 1 1 1
1 2 1 1 0 0 0 0 1 3 4 3 2 1 1 1 2 1 1 2 1 1 3 4 3 3 3 3 2 2 2 2 2 2 1 1 1 1 1 1 2 2 2
Wind_Direction
193 166 164 161 151 148 150 153 152 152 140 140 151 150 171 190 195 196 188 174 168 159 139 141 132 141 147 158 146 136 117 65 71 78 39 16 27 27 357 29 91 161 178
172 169 166 166 168 167 167 163 162 160 157 163 159 151 144 150 176 215 169 181 176 173 166 156 159 145 129 117 131 141 130 87 80 108 91 12 1 4 11 32 60 54 116
184 179 177 179 176 180 182 178 174 167 164 158 131 111 83 60 57 32 293 256 182 171 162 155 148 142 145 160 169 149 142 141 86 88 128 138 237 316 351 14 24 44 53
185 181 182 184 186 187 179 176 173 170 164 154 153 158 158 169 195 192 204 273 124 143 153 156 151 154 149 158 171 146 144 146 166 145 108 154 163 173 313 344 356 8 330
186 185 186 187 186 179 174 171 163 167 161 158 170 170 166 170 160 135 125 87 68 141 162 162 162 164 164 170 162 151 152 157 165 166 149 135 120 159 168 263 310 347 333
186 183 181 174 174 166 163 162 162 168 161 168 176 177 173 167 155 167 169 186 247 245 179 165 175 179 176 181 183 176 165 166 162 159 146 161 174 186 178 208 251 280 302
180 174 174 175 174 169 166 161 158 159 165 173 182 182 182 180 179 186 188 194 208 227 230 183 184 188 192 183 166 160 174 173 176 184 187 183 199 186 174 182 212 254 305
177 177 180 179 179 174 169 164 165 167 171 180 187 182 185 187 192 189 186 202 213 219 211 183 183 183 174 169 155 157 189 177 187 195 185 182 210 184 186 183 174 192 291
180 180 182 179 179 176 176 176 171 169 172 181 182 184 188 190 193 188 184 198 215 210 189 172 170 174 166 162 153 158 186 159 173 187 183 195 225 208 210 194 192 183 208
186 179 178 178 178 178 175 169 170 174 174 173 185 189 193 196 191 181 187 199 212 207 183 181 177 173 165 158 151 160 174 146 182 180 147 207 252 222 183 192 198 198 198
189 178 174 174 169 165 168 170 170 169 172 178 187 193 194 188 182 189 202 205 206 191 186 184 178 179 180 175 164 182 170 167 200 215 171 242 235 135 194 147 144 168 181
184 173 168 162 160 168 174 176 177 178 180 180 182 190 180 171 181 197 204 198 198 197 193 185 183 194 192 187 184 200 191 188 207 225 205 240 184 173 204 161 181 200 197
169 164 160 159 167 175 177 181 183 182 177 174 174 170 172 177 192 206 205 201 196 199 194 186 193 200 201 201 206 201 204 210 218 220 215 229 197 215 221 205 208 224 215
166 165 162 166 172 177 177 177 181 172 169 167 162 168 195 200 199 197 199 204 201 197 197 197 202 206 208 205 210 204 210 220 228 229 228 229 218 222 221 217 213 204 185
166 169 165 164 168 166 175 172 174 168 165 162 165 182 194 196 194 193 199 200 198 199 194 191 197 208 208 215 211 208 214 222 240 249 245 241 234 231 223 223 212 198 196
185 179 166 160 166 170 174 170 168 165 160 162 172 177 176 183 196 200 196 194 193 197 187 189 192 211 226 222 213 204 213 220 231 253 265 259 247 248 239 235 220 200 199
185 178 172 169 168 171 167 167 167 157 157 160 167 166 179 194 206 201 185 196 201 193 196 202 197 215 229 229 224 217 208 221 241 254 265 275 273 251 248 250 240 229 223
184 178 168 163 157 153 152 148 144 154 158 159 170 171 182 190 189 180 196 209 206 208 219 217 215 227 243 234 229 218 207 217 235 245 245 252 268 260 245 251 257 255 247
176 166 161 153 144 144 147 137 136 147 154 167 179 182 182 182 184 197 213 214 200 223 224 219 217 228 248 238 224 206 206 229 249 252 252 246 249 255 228 217 253 274 273
144 139 135 132 142 154 144 141 153 162 184 193 191 185 181 180 192 203 207 200 191 219 216 236 232 232 247 239 220 204 205 237 261 274 270 254 247 246 217 210 226 258 272
133 133 135 145 166 160 148 155 169 201 211 188 163 172 192 194 193 188 187 176 172 185 208 253 275 259 253 248 229 211 205 223 246 265 277 274 260 244 235 223 232 250 262
116 131 133 141 147 154 154 164 197 213 184 161 157 172 192 203 187 172 174 168 167 179 211 236 291 303 288 261 244 222 225 216 221 250 263 267 264 252 246 236 248 249 251
118 124 136 137 145 157 158 175 207 177 161 152 163 175 181 193 177 173 177 175 171 181 209 211 253 292 305 299 263 228 231 224 225 254 260 264 266 263 258 257 245 219 213
121 129 133 139 171 190 181 192 189 167 155 160 165 165 168 181 176 170 175 179 187 192 202 209 236 268 293 295 293 256 239 258 245 277 292 281 263 218 301 302 274 246 236
90 98 121 164 211 191 206 217 175 149 145 151 156 161 168 164 164 169 195 204 210 203 200 213 214 222 255 261 243 227 236 233 227 201 277 293 319 330 314 300 285 272 257
122 103 117 141 177 131 189 198 164 152 147 149 154 159 164 163 158 145 40 11 247 222 214 211 208 225 230 245 249 244 252 246 191 157 210 240 237 239 250 262 276 266 256